Starlink 5649

operational
NORAD ID: 55354 Int'l Des: 2023-013 Owner: SPXS Country: US Constellation: starlink
LEOCIRCULAR

Über Starlink 5649

Beschreibung wird geladen...

Live-Position

3D-Globus wird geladen...

Nächste Überflüge

Höhenverlauf

Altitude vs Time

uPlot chart will show altitude changes over time

Zweizeiliger Elementsatz

1 55354U 23013Z 25257.47090460 -.00000252 00000-0 -36076-5 0 9990
2 55354 43.0029 177.6730 0001158 268.3537 91.7173 15.02539401145202
Epoch: 14. Sept. 2025 • Age: 40 hours

Aktueller Status

Höhe 560.8 km
Geschwindigkeit 7.59 km/s
Subsatellitenpunkt 32.50°N, 105.97°W
Startdatum 26. Jan. 2023
Alter 2.6 years
Typ internet

Technische Details

Klassifizierung Payload
Masse 305.00 kg
Trockenmasse 290.00 kg
Gesamtmasse 305.00 kg
Länge 0.20 m
Durchmesser 2.80 m
Spannweite 9.00 m
Form Box + pan
Hersteller SPXS
Bus-Typ Starlink
Phasenstatus In Orbit
Besitzer/Staat SPXS/US

Große Konstellationen

Loading constellations...